Home   Weather   Pinetop-Lakeside   Past weeks
Flag for USA

Past Weather in Pinetop-Lakeside, Arizona, USA — Yesterday and Last 2 Weeks

Now
63 °F

Sunny.


Feels Like: 63 °F
Forecast: 64 / 38 °F
Wind: 12 mph from Northwest

Location: Show Low Municipal

Current Time: Oct 18, 2019 at 5:13:04 pm

Latest Report: Oct 18, 2019 at 4:35 pm


Visibility: 10 mi

Pressure: 30.00 "Hg (23.50 "Hg at 2074m altitude)

Humidity: 25%

Dew Point: 27 °F

Location of Pinetop-LakesideLocation

Past Weather in Pinetop-Lakeside — Graph

°F

Pinetop-Lakeside Temperature Yesterday

Maximum temperature yesterday: 72 °F (at 12:35 pm)
Minimum temperature yesterday: 45 °F (at 5:35 am)
Average temperature yesterday: 60 °F

High & Low Weather Summary for the Past Weeks

 TemperatureHumidityPressure
High77 °F (Oct 7, 2:15 pm)82% (Oct 5, 3:15 am)30.37 "Hg (Oct 5, 3:15 am)
Low21 °F (Oct 11, 4:35 am)6% (Oct 11, 3:35 pm)29.86 "Hg (Oct 18, 12:35 am)
Average56 °F35%30.18 "Hg
* Reported Oct 3 4:15 pm — Oct 18 4:15 pm, Pinetop-Lakeside. Weather by CustomWeather, © 2019

Note: Actual official high and low records may vary slightly from our data, if they occured in-between our weather recording intervals... More about our weather records

Advertising

Pinetop-Lakeside Weather History for the Previous 24 Hours

Scroll right to see more
 ConditionsComfort  
Time TempWeatherWind HumidityBarometerVisibility
4:15 pm
Fri, Oct 18
64 °FSunny.5 mph24%29.99 "Hg10 mi
3:55 pm66 °FSunny.13 mph19%29.98 "Hg10 mi
3:35 pm66 °FSunny.12 mph19%29.99 "Hg10 mi
3:15 pm66 °FPassing clouds.15 mph19%29.99 "Hg10 mi
2:55 pm64 °FScattered clouds.13 mph22%29.98 "Hg10 mi
2:35 pm66 °FSunny.10 mph19%29.97 "Hg10 mi
2:15 pm63 °FSunny.14 mph22%29.97 "Hg10 mi
1:35 pm61 °FScattered clouds.12 mph27%29.97 "Hg10 mi
1:15 pm63 °FPartly sunny.10 mph24%29.97 "Hg10 mi
12:55 pm63 °FBroken clouds.13 mph24%29.97 "Hg10 mi
12:35 pm64 °FScattered clouds.13 mph24%29.98 "Hg10 mi
12:15 pm63 °FPassing clouds.16 mph25%29.98 "Hg10 mi
11:55 am64 °FScattered clouds.15 mph26%29.99 "Hg10 mi
11:35 am61 °FSunny.13 mph29%29.99 "Hg10 mi
11:15 am61 °FSunny.17 mph29%29.99 "Hg10 mi
10:55 am61 °FSunny.15 mph31%29.99 "Hg10 mi
10:35 am61 °FSunny.18 mph34%29.99 "Hg10 mi
10:15 am61 °FSunny.22 mph36%29.99 "Hg10 mi
9:55 am59 °FSunny.17 mph39%29.99 "Hg10 mi
9:35 am59 °FSunny.20 mph36%29.99 "Hg10 mi
9:15 am57 °FSunny.20 mph41%29.99 "Hg10 mi
8:35 am55 °FSunny.15 mph51%29.99 "Hg10 mi
8:15 am55 °FSunny.14 mph55%29.99 "Hg10 mi
7:35 am52 °FSunny.13 mph67%29.97 "Hg10 mi
7:15 am52 °FSunny.12 mph67%29.96 "Hg10 mi
6:55 am50 °FSunny.12 mph67%29.93 "Hg10 mi
6:35 am50 °FSunny.13 mph67%29.93 "Hg10 mi
6:15 am50 °FClear.15 mph67%29.93 "Hg10 mi
5:55 am50 °FClear.15 mph62%29.93 "Hg10 mi
5:35 am50 °FClear.15 mph62%29.93 "Hg10 mi
5:15 am50 °FClear.15 mph58%29.92 "Hg10 mi
4:55 am50 °FClear.17 mph58%29.91 "Hg10 mi
4:35 am52 °FClear.17 mph54%29.92 "Hg10 mi
4:15 am52 °FClear.20 mph50%29.90 "Hg10 mi
3:55 am52 °FClear.24 mph50%29.90 "Hg10 mi
3:35 am54 °FClear.26 mph51%29.89 "Hg10 mi
3:15 am54 °FClear.23 mph54%29.88 "Hg10 mi
2:55 am55 °FClear.28 mph51%29.88 "Hg10 mi
2:35 am55 °FClear.37 mph51%29.87 "Hg10 mi
2:15 am55 °FClear.36 mph55%29.86 "Hg10 mi
1:35 am55 °FClear.32 mph51%29.86 "Hg10 mi
12:55 am57 °FClear.31 mph55%29.86 "Hg10 mi
12:35 am57 °FClear.28 mph55%29.86 "Hg10 mi
12:15 am57 °FClear.26 mph51%29.87 "Hg10 mi
11:35 pm
Thu, Oct 17
59 °FClear.25 mph45%29.87 "Hg10 mi
11:15 pm59 °FClear.22 mph45%29.88 "Hg10 mi
10:55 pm59 °FClear.17 mph42%29.90 "Hg10 mi
10:35 pm59 °FClear.17 mph42%29.90 "Hg10 mi
10:15 pm59 °FClear.18 mph42%29.91 "Hg10 mi
9:55 pm61 °FClear.20 mph42%29.91 "Hg10 mi
9:35 pm61 °FClear.16 mph42%29.90 "Hg10 mi
9:15 pm61 °FClear.16 mph42%29.91 "Hg10 mi
8:35 pm61 °FClear.18 mph42%29.90 "Hg10 mi
8:15 pm61 °FClear.15 mph39%29.91 "Hg10 mi
7:55 pm61 °FClear.10 mph39%29.92 "Hg10 mi
7:35 pm61 °FClear.10 mph39%29.92 "Hg10 mi
7:15 pm61 °FClear.7 mph39%29.92 "Hg10 mi
6:55 pm61 °FClear.7 mph39%29.93 "Hg10 mi
6:35 pm63 °FClear.9 mph37%29.93 "Hg10 mi
6:15 pm64 °FClear.9 mph34%29.93 "Hg10 mi
5:55 pm64 °FClear.15 mph32%29.93 "Hg10 mi
5:35 pm66 °FSunny.15 mph30%29.94 "Hg10 mi
Weather by CustomWeather, © 2019

See weather overview